Location: Umburanas
(4.5000°S, 37.9667°W)
Time: 12:43:50
(UTC+00:00)

Ariane H10+ - Pass Details

Date: 19 November 2019
Orbit: 243 x 24887 km, 6.3° (Epoch: 05 December)

Event Time Altitude Azimuth Distance (km) Brightness Sun altitude
Rises 20:21:14 0° 282° (WNW) 2,469 6.3 0.6°
Reaches altitude 10° 20:22:28 10° 284° (WNW) 1,907 5.6 0.3°
Maximum altitude 20:26:17 77° 10° (N) 1,167 3.5 -0.6°
Drops below altitude 10° 20:48:30 10° 94° (E) 9,647 7.5 -5.8°
Sets 21:14:12 0° 95° (E) 16,715 8.7 -11.8°
